[[{"header":{"parameterUnit":"m.s-1","parameterCategory":2,"la1":30.2991,"la2":30.254,"lo1":-89.0895,"lo2":-89.0444,"dy":0.0017,"dx":0.0017,"nx":28,"ny":28,"refTime":"2024-11-27T09:00:00:Z","depth":"0","parameterNumber":2,"parameterNumberName":"U-component_of_CURRENTS"},"data":[0,0,0,0,0,0,0,0,0,0,0,0,0,0,0,0,0,0,0,0,0,0,0,0,0,0,0,0,0,0,0,0,0,0,0,0,0,0,0,0,0,0,0,0,0,0,0,0,0,0,0,0,0,0,0,0,0,0,0.459,0.4589,0,0.4556,0.4556,0.4556,0.4572,0.4573,0.4573,0.4573,0.4482,0.4479,0.4477,0,0,0,0,0,0,0,0,0,0,0,0,0,0.4501,0.4505,0.459,0.4589,0.4588,0.4556,0.4556,0.4557,0.4572,0.4573,0.4573,0.4573,0.4483,0.4479,0.4476,0,0,0,0,0,0,0,0,0,0,0,0,0,0.4518,0.4506,0.459,0.4587,0.4586,0.4556,0.4556,0.4557,0.4572,0.4573,0.4573,0.4573,0.4484,0.448,0.4476,0.4444,0,0,0.4464,0.4462,0,0,0,0,0,0,0,0,0.4517,0.4522,0.4588,0.4587,0.4586,0.4563,0.4491,0.4514,0.4572,0.4585,0.4573,0.4574,0.4499,0.4494,0.4497,0.444,0.4436,0.4463,0.4461,0.4459,0.4458,0,0,0,0,0,0,0,0.4516,0.4522,0.4583,0.4587,0.4585,0.4529,0.4535,0.4496,0.4544,0.4584,0.4583,0.4568,0.4499,0.4501,0.4495,0.4435,0.4463,0.446,0.4457,0.4456,0.4446,0.4448,0,0,0,0,0,0,0.4516,0.4523,0.4584,0.4582,0.4544,0.4531,0.4537,0.4575,0.4546,0.454,0.4568,0.4569,0.4508,0.4499,0.4491,0.4586,0.4459,0.4455,0.4453,0.4444,0.4446,0.4449,0,0,0,0,0,0,0.4515,0.4524,0.4586,0.4542,0.4545,0.4533,0.4575,0.4574,0.4581,0.4533,0.4528,0.4575,0.4508,0.4497,0.4468,0.4577,0.4454,0.445,0.4441,0.4445,0.4447,0.4688,0,0,0,0,0,0,0.4514,0.4525,0.4559,0.4544,0.4548,0.4613,0.4574,0.4573,0.4567,0.4569,0.4537,0.4529,0.4507,0.4475,0.4464,0.4569,0.4447,0.4439,0.4443,0.4446,0.4678,0.4699,0.4718,0,0,0,0,0,0.4512,0.4577,0.4562,0.4568,0.4595,0.4615,0.4615,0.4606,0.4567,0.4606,0.4555,0.453,0.4495,0.4471,0.4459,0.4567,0.4437,0.4442,0.4446,0.4669,0.4695,0.4717,0,0,0,0,0,0,0.4539,0.4583,0.4567,0.4637,0.4635,0.4616,0.4635,0.4606,0.4596,0.458,0.4528,0.4519,0.4553,0.4495,0.4471,0.4571,0.4473,0.4475,0.4647,0.467,0.469,0.4708,0.4444,0,0,0,0,0,0.4559,0.4623,0.463,0.4668,0.4682,0.4648,0.4647,0.4638,0.4614,0.4611,0.4594,0.4562,0.4562,0.4559,0.4547,0.4569,0.4548,0.4634,0.4655,0.4672,0.4676,0.4746,0.4775,0.4464,0.4464,0.4464,0,0,0.4559,0.4594,0.4619,0.4677,0.4668,0.4699,0.4654,0.4666,0.4705,0.4597,0.4652,0.4625,0.4577,0.4638,0.4649,0.4604,0.475,0.4678,0.4695,0.4688,0.4754,0.4785,0.4812,0.4468,0.4467,0.4466,0,0,0.4583,0.4642,0.4695,0.4715,0.4723,0.4732,0.4736,0.4743,0.4781,0.4808,0.4757,0.478,0.477,0.4787,0.4781,0.4884,0.4853,0.4891,0.5016,0.5087,0.5114,0.5138,0.5166,0.519,0.4906,0.4907,0.4907,0,0.4572,0.4665,0.4702,0.4744,0.4764,0.475,0.4788,0.4831,0.4829,0.4882,0.4861,0.4893,0.4859,0.4929,0.4981,0.4942,0.4949,0.4941,0.512,0.5142,0.5163,0.5185,0.5209,0.4919,0.4917,0.4916,0.4915,0,0.4612,0.4699,0.4731,0.4802,0.4828,0.4872,0.4917,0.4976,0.5011,0.506,0.5163,0.5133,0.5155,0.5176,0.511,0.5242,0.519,0.5143,0.5073,0.521,0.5223,0.5243,0.4936,0.4932,0.4928,0.4925,0,0,0.4572,0.4739,0.4748,0.4811,0.4876,0.4904,0.5001,0.5117,0.5196,0.5273,0.5403,0.5434,0.5435,0.5421,0.5372,0.5431,0.5588,0.5357,0.5355,0.5409,0.5728,0.5535,0.5538,0.5587,0.5591,0.5595,0.5687,0,0.4597,0.4724,0.4793,0.4899,0.4975,0.5026,0.5112,0.5201,0.5314,0.5455,0.5519,0.5605,0.5529,0.5545,0.5609,0.5574,0.5649,0.5565,0.5563,0.5562,0.5397,0.5558,0.5283,0.5328,0.5706,0.5709,0.5712,0,0.4605,0.4717,0.4834,0.5003,0.5033,0.509,0.5241,0.5309,0.55,0.5591,0.5716,0.5769,0.5866,0.5787,0.586,0.5811,0.5796,0.5778,0.5781,0.5524,0.5407,0.5246,0.535,0.5284,0.5742,0.574,0.5737,0,0.4563,0.4747,0.4862,0.4906,0.5069,0.5145,0.5217,0.5363,0.5426,0.5679,0.5759,0.5921,0.5951,0.6017,0.5974,0.5944,0.6046,0.5997,0.582,0.5805,0.5525,0.5476,0.5578,0.6091,0.6091,0.6091,0.609,0,0.4587,0.4686,0.4869,0.4931,0.5058,0.5138,0.5254,0.5376,0.5505,0.5584,0.5801,0.5869,0.6009,0.6077,0.6069,0.599,0.6126,0.587,0.5835,0.5596,0.5555,0.5439,0.5408,0.6094,0.6093,0.6093,0.6092,0,0.4537,0.4658,0.4792,0.4984,0.5047,0.5111,0.5223,0.5283,0.5426,0.5537,0.561,0.5831,0.5899,0.6002,0.6083,0.6032,0.5864,0.597,0.5657,0.5582,0.5309,0.5298,0.5108,0.4968,0.5811,0.5807,0.5804,0,0.4552,0.4614,0.4785,0.4823,0.4928,0.5029,0.5071,0.5228,0.5274,0.5464,0.5507,0.5659,0.5705,0.5779,0.5746,0.5744,0.5663,0.5513,0.54,0.5286,0.5252,0.5089,0.4975,0.5143,0.5134,0.5127,0.5122,0,0.4566,0.4589,0.4658,0.472,0.4798,0.4864,0.4961,0.4978,0.5118,0.5183,0.5251,0.5312,0.5401,0.5279,0.531,0.5284,0.5254,0.5363,0.5355,0.4829,0.455,0.4397,0.5084,0.506,0.5066,0.5071,0.5074,0.5076,0.4513,0.4511,0.4534,0.4576,0.4626,0.4638,0.4595,0.4672,0.4661,0.4654,0.4867,0.4816,0.4913,0.4873,0.4838,0.4697,0.4729,0.4602,0.463,0.4502,0.4255,0.4777,0.4634,0.4638,0.4641,0.4644,0.4646,0,0.4406,0.4386,0.4394,0.437,0.4291,0.4418,0.4437,0.4315,0.4194,0.428,0.4241,0.4229,0.414,0.4239,0.4199,0.406,0.3893,0.3998,0.3771,0.3723,0.4294,0.4155,0.3768,0.3768,0.3768,0.3768,0.3768,0.3768,0.4328,0.4257,0.4225,0.4036,0.3995,0.3819,0.3766,0.366,0.365,0.3484,0.3436,0.3508,0.3842,0.3942,0.3831,0.3722,0.3523,0.3276,0.3386,0.3878,0.3939,0.3997,0.3865,0.3423,0.3423,0.2617,0.2611,0.2607]},{"header":{"parameterUnit":"m.s-1","parameterCategory":2,"la1":30.2991,"la2":30.254,"lo1":-89.0895,"lo2":-89.0444,"dy":0.0017,"dx":0.0017,"nx":28,"ny":28,"refTime":"2024-11-27T09:00:00:Z","depth":"0","parameterNumber":3,"parameterNumberName":"V-component_of_CURRENTS"},"data":[0,0,0,0,0,0,0,0,0,0,0,0,0,0,0,0,0,0,0,0,0,0,0,0,0,0,0,0,0,0,0,0,0,0,0,0,0,0,0,0,0,0,0,0,0,0,0,0,0,0,0,0,0,0,0,0,0,0,0.0332,0.0332,0,0.0263,0.0262,0.026,0.0212,0.0212,0.0212,0.0212,0.0113,0.0111,0.0108,0,0,0,0,0,0,0,0,0,0,0,0,0,0.0329,0.0329,0.0332,0.0332,0.0332,0.0263,0.0262,0.026,0.0212,0.0212,0.0212,0.0212,0.0114,0.0111,0.0108,0,0,0,0,0,0,0,0,0,0,0,0,0,0.0298,0.033,0.0333,0.0303,0.03,0.0263,0.0262,0.026,0.0212,0.0212,0.0212,0.0212,0.0115,0.0112,0.0108,0.0081,0,0,0.0095,0.0094,0,0,0,0,0,0,0,0,0.03,0.0298,0.0307,0.0305,0.0301,0.025,0.0224,0.02,0.0212,0.024,0.0212,0.0212,0.016,0.0152,0.0132,0.0076,0.0072,0.0095,0.0092,0.0091,0.009,0,0,0,0,0,0,0,0.0302,0.03,0.03,0.0307,0.0303,0.0261,0.0257,0.0219,0.0196,0.0238,0.0235,0.0235,0.0157,0.0136,0.013,0.0071,0.0095,0.0091,0.0089,0.0087,0.0037,0.0038,0,0,0,0,0,0,0.0325,0.0302,0.0302,0.0299,0.0306,0.0261,0.0257,0.0263,0.0197,0.0189,0.0235,0.0233,0.0143,0.0134,0.0126,0.0115,0.0091,0.0087,0.0085,0.0036,0.0038,0.0039,0,0,0,0,0,0,0.0325,0.0326,0.0305,0.0302,0.0297,0.0263,0.0269,0.0261,0.0246,0.0196,0.0186,0.0229,0.0143,0.0132,0.0104,0.011,0.0085,0.0082,0.0035,0.0037,0.0038,0.0077,0,0,0,0,0,0,0.0326,0.0327,0.033,0.0304,0.0298,0.0292,0.0269,0.026,0.0248,0.0245,0.0188,0.0178,0.0142,0.011,0.01,0.0104,0.0078,0.0034,0.0036,0.0038,0.0074,0.0079,0.0084,0,0,0,0,0,0.0326,0.0342,0.033,0.033,0.0307,0.0293,0.0285,0.0257,0.0248,0.0242,0.021,0.018,0.0117,0.0107,0.0095,0.0098,0.0033,0.0035,0.0037,0.0072,0.0078,0.0084,0,0,0,0,0,0,0.035,0.0339,0.0325,0.0339,0.0318,0.0286,0.028,0.0263,0.0231,0.0228,0.0182,0.017,0.015,0.0125,0.0116,0.0094,0.0074,0.0074,0.0105,0.011,0.0115,0.0143,0.0075,0,0,0,0,0,0.0357,0.0364,0.0341,0.0353,0.0343,0.031,0.0299,0.0283,0.0257,0.0243,0.0205,0.0174,0.0149,0.0131,0.0102,0.0081,0.007,0.0082,0.0087,0.0091,0.0108,0.0119,0.0127,0.0047,0.0047,0.0047,0,0,0.0372,0.0366,0.0371,0.0358,0.0336,0.033,0.0303,0.0294,0.0288,0.0237,0.0214,0.0185,0.0149,0.0129,0.0119,0.0107,0.0101,0.0094,0.0098,0.0113,0.0123,0.013,0.0137,0.0048,0.0048,0.0048,0,0,0.0402,0.0397,0.0402,0.0386,0.0363,0.0349,0.0352,0.032,0.0301,0.0276,0.0248,0.0233,0.0177,0.0164,0.0148,0.0168,0.0128,0.0154,0.0193,0.0203,0.021,0.0216,0.0178,0.0181,0.0155,0.0155,0.0155,0,0.0412,0.0425,0.0402,0.0395,0.0401,0.0365,0.0377,0.0345,0.031,0.0319,0.0277,0.0248,0.0199,0.0211,0.0202,0.0178,0.0162,0.0168,0.021,0.0216,0.0221,0.0181,0.0183,0.0157,0.0157,0.0156,0.0156,0,0.0438,0.0441,0.0446,0.0433,0.0435,0.044,0.0411,0.0403,0.0382,0.0367,0.0367,0.0306,0.03,0.0274,0.0226,0.025,0.0216,0.0214,0.0193,0.0231,0.0186,0.0188,0.016,0.0159,0.0158,0.0158,0,0,0.0467,0.0466,0.0461,0.0486,0.0462,0.0484,0.0474,0.0486,0.0522,0.0456,0.0512,0.0425,0.0408,0.0391,0.0343,0.0331,0.0314,0.0279,0.0279,0.0239,0.0301,0.0277,0.0275,0.0318,0.0319,0.032,0.0241,0,0.0489,0.0523,0.0505,0.0551,0.058,0.0558,0.0573,0.058,0.0572,0.0608,0.0556,0.0578,0.0447,0.0462,0.0417,0.0371,0.0326,0.0333,0.0274,0.0271,0.0244,0.028,0.0274,0.0205,0.0243,0.0243,0.0243,0,0.0509,0.0543,0.0597,0.066,0.067,0.069,0.0764,0.0769,0.0789,0.079,0.0784,0.075,0.0718,0.0618,0.0504,0.0514,0.0397,0.0336,0.0332,0.0306,0.0253,0.0181,0.0206,0.0026,0.0245,0.0245,0.0245,0,0.0582,0.0611,0.0682,0.0692,0.074,0.0775,0.0807,0.0838,0.0891,0.093,0.0995,0.0923,0.0938,0.0789,0.0603,0.0564,0.0494,0.0435,0.029,0.0285,0.0269,0.0261,0.0119,0.0351,0.0351,0.0351,0.0352,0,0.0628,0.0678,0.0727,0.0763,0.088,0.0875,0.0991,0.1009,0.1076,0.1191,0.1103,0.1183,0.0987,0.0909,0.069,0.0501,0.0549,0.0308,0.0281,0.0277,0.0272,0.0107,-0.0012,0.0348,0.0349,0.035,0.035,0,0.0693,0.0708,0.0807,0.088,0.0917,0.1008,0.1121,0.1208,0.1245,0.1399,0.1431,0.1407,0.1307,0.1077,0.0877,0.0651,0.0346,0.0372,0.0355,0.0327,0.0013,-0.0103,-0.0276,-0.0359,0.02,0.02,0.0199,0,0.0741,0.0787,0.091,0.0992,0.1028,0.115,0.1244,0.1302,0.1405,0.1542,0.1642,0.1606,0.1595,0.1272,0.0898,0.0536,0.0335,0.0289,0.0211,0.0008,-0.0142,-0.0224,-0.0287,0.0177,0.0176,0.0176,0.0175,0,0.0836,0.0866,0.0951,0.1113,0.1231,0.1375,0.1506,0.1615,0.171,0.1835,0.1973,0.1981,0.1684,0.1342,0.0863,0.0604,0.0158,0.0263,0.0079,-0.0146,-0.0267,-0.0361,0.0176,0.0169,0.017,0.017,0.0171,0.0171,0.0922,0.0996,0.1098,0.1257,0.1397,0.1575,0.1696,0.1844,0.2028,0.2195,0.2193,0.222,0.1738,0.1092,0.0732,0.0109,0.0087,-0.0107,-0.023,-0.0292,-0.0372,0.0134,0.0091,0.0091,0.0091,0.0091,0.0091,0,0.1037,0.11,0.1238,0.1421,0.1578,0.1633,0.1857,0.198,0.2198,0.2331,0.2413,0.2193,0.1588,0.0995,0.0149,-0.0303,-0.0461,-0.0538,-0.0664,-0.0702,-0.0226,-0.0225,-0.0366,-0.0366,-0.0365,-0.0365,-0.0365,-0.0365,0.1104,0.1234,0.1287,0.1542,0.1664,0.1867,0.1995,0.2186,0.2317,0.246,0.2465,0.2438,0.2021,0.0484,-0.0497,-0.0718,-0.1021,-0.112,-0.1249,-0.0943,-0.0912,-0.0882,-0.0907,-0.1188,-0.1189,-0.1657,-0.1662,-0.1666]}],[{"header":{"parameterUnit":"m.s-1","parameterCategory":2,"la1":30.2991,"la2":30.254,"lo1":-89.0895,"lo2":-89.0444,"dy":0.0017,"dx":0.0017,"nx":28,"ny":28,"refTime":"2024-11-27T09:00:00:Z","depth":"2","parameterNumber":2,"parameterNumberName":"U-component_of_CURRENTS"},"data":[0,0,0,0,0,0,0,0,0,0,0,0,0,0,0,0,0,0,0,0,0,0,0,0,0,0,0,0,0,0,0,0,0,0,0,0,0,0,0,0,0,0,0,0,0,0,0,0,0,0,0,0,0,0,0,0,0,0,0.3714,0.3715,0,0.3735,0.3735,0.3735,0.3757,0.3758,0.3758,0.3759,0.3739,0.3738,0.3737,0,0,0,0,0,0,0,0,0,0,0,0,0,0.3578,0.3581,0.3714,0.3715,0.3715,0.3735,0.3735,0.3735,0.3757,0.3758,0.3758,0.3759,0.3739,0.3738,0.3737,0,0,0,0,0,0,0,0,0,0,0,0,0,0.3619,0.3582,0.3714,0.3731,0.3733,0.3735,0.3735,0.3735,0.3757,0.3758,0.3758,0.3759,0.374,0.3738,0.3737,0.3709,0,0,0.3732,0.3731,0,0,0,0,0,0,0,0,0.3617,0.3624,0.3728,0.373,0.3732,0.3747,0.368,0.3725,0.3756,0.3744,0.3759,0.376,0.3739,0.3738,0.3736,0.3708,0.3707,0.3732,0.3731,0.373,0.3729,0,0,0,0,0,0,0,0.3614,0.3622,0.3719,0.3728,0.3731,0.3698,0.3705,0.3688,0.3734,0.3746,0.3748,0.3755,0.374,0.3737,0.3736,0.3707,0.3732,0.373,0.3729,0.3729,0.3735,0.3736,0,0,0,0,0,0,0.3623,0.3621,0.3719,0.372,0.3679,0.37,0.3708,0.3739,0.3735,0.3736,0.3754,0.3756,0.374,0.3737,0.3735,0.3827,0.373,0.3728,0.3728,0.3734,0.3735,0.3737,0,0,0,0,0,0,0.3621,0.3633,0.3718,0.3671,0.368,0.3703,0.3736,0.3739,0.3761,0.3742,0.3742,0.3776,0.374,0.3737,0.3736,0.3822,0.3728,0.3726,0.3733,0.3734,0.3736,0.3932,0,0,0,0,0,0,0.3617,0.3632,0.3648,0.3673,0.3684,0.3721,0.3735,0.3739,0.3764,0.3767,0.3761,0.3759,0.3741,0.3739,0.3735,0.3818,0.3725,0.3731,0.3733,0.3735,0.3924,0.394,0.3954,0,0,0,0,0,0.3612,0.3654,0.365,0.3661,0.3709,0.3722,0.3723,0.3738,0.3764,0.3764,0.3771,0.376,0.375,0.3738,0.3733,0.3818,0.373,0.3733,0.3735,0.3917,0.3937,0.3953,0,0,0,0,0,0,0.3607,0.3661,0.3657,0.3712,0.3709,0.3727,0.3749,0.3752,0.3759,0.3777,0.3762,0.3759,0.3796,0.3756,0.3744,0.3819,0.3743,0.3745,0.3883,0.3901,0.3916,0.3928,0.3724,0,0,0,0,0,0.3609,0.3683,0.3673,0.3733,0.3725,0.3735,0.3745,0.3751,0.3764,0.3771,0.3776,0.3781,0.3797,0.3808,0.3796,0.3827,0.3817,0.3877,0.3892,0.3905,0.3907,0.3989,0.4014,0.3745,0.3745,0.3745,0,0,0.3628,0.3678,0.3713,0.3739,0.375,0.3718,0.3745,0.3776,0.3821,0.3765,0.3839,0.3826,0.381,0.386,0.3874,0.3845,0.3971,0.3908,0.3921,0.3915,0.3995,0.4022,0.4046,0.3747,0.3746,0.3746,0,0,0.3667,0.3737,0.3753,0.3755,0.3766,0.3758,0.3766,0.3778,0.3864,0.3889,0.3898,0.3942,0.3925,0.3977,0.399,0.4072,0.4042,0.4055,0.416,0.4242,0.4266,0.4287,0.4301,0.4322,0.4074,0.4074,0.4075,0,0.3674,0.3726,0.3755,0.3745,0.3774,0.377,0.3758,0.3825,0.3854,0.3967,0.3927,0.399,0.4,0.4107,0.4146,0.4121,0.4113,0.4108,0.4269,0.4289,0.4308,0.4317,0.4337,0.4084,0.4083,0.4082,0.4081,0,0.3651,0.3721,0.3752,0.3744,0.3737,0.3784,0.3816,0.389,0.3967,0.4039,0.418,0.4175,0.4225,0.4244,0.4223,0.4369,0.4302,0.4281,0.424,0.4348,0.4348,0.4366,0.4098,0.4095,0.4092,0.4089,0,0,0.3633,0.3725,0.374,0.3784,0.3784,0.379,0.3892,0.4012,0.4147,0.4194,0.4378,0.4428,0.445,0.4461,0.4458,0.4522,0.4672,0.4459,0.4459,0.45,0.4797,0.459,0.4588,0.4677,0.4682,0.4685,0.4743,0,0.3629,0.368,0.3705,0.3761,0.3786,0.3859,0.3938,0.4051,0.4205,0.4377,0.4495,0.4612,0.4536,0.4578,0.4639,0.4667,0.4727,0.4654,0.4658,0.4657,0.4487,0.4606,0.4288,0.4298,0.476,0.4763,0.4765,0,0.3561,0.3648,0.3699,0.3864,0.3871,0.3885,0.4083,0.4158,0.4406,0.4546,0.4684,0.4759,0.4898,0.4807,0.4899,0.4846,0.484,0.483,0.4832,0.458,0.4485,0.4261,0.4312,0.4794,0.4792,0.479,0.4788,0,0.3526,0.3664,0.3754,0.3791,0.3885,0.3996,0.4058,0.4239,0.4361,0.4682,0.4779,0.4944,0.502,0.5051,0.5031,0.4997,0.5085,0.5055,0.4848,0.4831,0.4528,0.4476,0.5131,0.5131,0.5131,0.5131,0.5131,0,0.3524,0.3607,0.3784,0.3821,0.3941,0.4006,0.4153,0.4295,0.4479,0.459,0.4851,0.4925,0.5083,0.5145,0.511,0.501,0.516,0.4879,0.4852,0.4578,0.4533,0.4927,0.4902,0.5133,0.5133,0.5132,0.5132,0,0.3454,0.3549,0.3684,0.3875,0.391,0.4003,0.4133,0.4268,0.4441,0.4596,0.4693,0.4952,0.5032,0.5112,0.5184,0.5081,0.5043,0.4966,0.4596,0.4523,0.4713,0.4698,0.4779,0.4772,0.4767,0.4762,0.4759,0,0.344,0.3482,0.3693,0.3751,0.3857,0.3985,0.4054,0.4226,0.4325,0.4537,0.4593,0.4796,0.4842,0.4882,0.4828,0.4772,0.4887,0.4418,0.4307,0.4721,0.4688,0.4681,0.4673,0.3987,0.3978,0.397,0.3963,0,0.3406,0.3481,0.3568,0.3708,0.3826,0.3893,0.4014,0.4035,0.4195,0.4293,0.4348,0.4414,0.4524,0.4348,0.4345,0.426,0.4412,0.4245,0.4837,0.4102,0.3974,0.3941,0.396,0.3892,0.3899,0.3904,0.3908,0.3911,0.3355,0.3428,0.3533,0.3623,0.3724,0.3734,0.3715,0.3798,0.3778,0.3802,0.3974,0.3945,0.4038,0.3842,0.3705,0.3653,0.3934,0.3784,0.3811,0.3846,0.372,0.3587,0.3407,0.3411,0.3414,0.3417,0.342,0,0.3325,0.3355,0.3435,0.348,0.3499,0.3613,0.3603,0.35,0.3363,0.3476,0.3449,0.3188,0.3091,0.3182,0.2985,0.2963,0.297,0.285,0.2855,0.2929,0.2994,0.2826,0.2275,0.2271,0.2267,0.2263,0,0,0.3271,0.3255,0.3259,0.3181,0.3231,0.3132,0.3071,0.2934,0.2901,0.2756,0.2727,0.2962,0.3088,0.264,0.2594,0.2398,0.2643,0.2308,0.3239,0.3322,0.3381,0.3555,0.3382,0,0,0,0,0]},{"header":{"parameterUnit":"m.s-1","parameterCategory":2,"la1":30.2991,"la2":30.254,"lo1":-89.0895,"lo2":-89.0444,"dy":0.0017,"dx":0.0017,"nx":28,"ny":28,"refTime":"2024-11-27T09:00:00:Z","depth":"2","parameterNumber":3,"parameterNumberName":"V-component_of_CURRENTS"},"data":[0,0,0,0,0,0,0,0,0,0,0,0,0,0,0,0,0,0,0,0,0,0,0,0,0,0,0,0,0,0,0,0,0,0,0,0,0,0,0,0,0,0,0,0,0,0,0,0,0,0,0,0,0,0,0,0,0,0,0.0199,0.0199,0,0.0122,0.0121,0.012,0.0073,0.0073,0.0073,0.0074,-0.0001,-0.0003,-0.0005,0,0,0,0,0,0,0,0,0,0,0,0,0,0.0214,0.0214,0.02,0.0199,0.0199,0.0123,0.0121,0.0119,0.0073,0.0073,0.0073,0.0074,-0.0,-0.0003,-0.0006,0,0,0,0,0,0,0,0,0,0,0,0,0,0.0174,0.0214,0.02,0.017,0.0168,0.0123,0.0121,0.0119,0.0072,0.0073,0.0073,0.0074,0.0001,-0.0003,-0.0006,-0.0036,0,0,-0.0016,-0.0018,0,0,0,0,0,0,0,0,0.0177,0.0173,0.0175,0.0172,0.0169,0.0113,0.0099,0.0069,0.0072,0.0102,0.0074,0.0074,0.0041,0.0034,0.001,-0.004,-0.0043,-0.0017,-0.0019,-0.002,-0.0021,0,0,0,0,0,0,0,0.018,0.0176,0.0163,0.0175,0.0171,0.013,0.0125,0.0092,0.0065,0.01,0.0098,0.0098,0.0038,0.0013,0.0008,-0.0044,-0.0017,-0.002,-0.0022,-0.0023,-0.0085,-0.0085,0,0,0,0,0,0,0.0205,0.0179,0.0166,0.0161,0.0181,0.013,0.0124,0.0126,0.0066,0.0059,0.0098,0.0096,0.0019,0.0012,0.0005,-0.0001,-0.002,-0.0023,-0.0025,-0.0086,-0.0085,-0.0085,0,0,0,0,0,0,0.0206,0.0205,0.0169,0.0173,0.0166,0.0131,0.0132,0.0124,0.0108,0.0065,0.0057,0.0092,0.0019,0.001,-0.0012,-0.0005,-0.0025,-0.0028,-0.0086,-0.0085,-0.0085,-0.0034,0,0,0,0,0,0,0.0207,0.0205,0.0207,0.0175,0.0167,0.0155,0.0132,0.0122,0.011,0.0107,0.0057,0.005,0.0019,-0.0007,-0.0016,-0.001,-0.0031,-0.0087,-0.0086,-0.0085,-0.0037,-0.0032,-0.0028,0,0,0,0,0,0.0207,0.0221,0.0207,0.0206,0.0173,0.0156,0.0147,0.0119,0.011,0.0105,0.0074,0.0052,-0.0008,-0.001,-0.002,-0.0015,-0.0087,-0.0086,-0.0085,-0.0038,-0.0033,-0.0028,0,0,0,0,0,0,0.0234,0.0217,0.0202,0.021,0.0188,0.015,0.0146,0.0126,0.0094,0.0094,0.0051,0.0041,0.0024,-0.0001,-0.0002,-0.003,-0.0049,-0.005,-0.001,-0.0005,-0.0001,0.0035,-0.0034,0,0,0,0,0,0.0241,0.0245,0.0218,0.0226,0.0217,0.0179,0.0167,0.015,0.0123,0.0109,0.0074,0.0042,0.0016,0.0003,-0.0028,-0.0045,-0.0066,-0.0047,-0.0043,-0.0039,-0.0016,-0.0029,-0.0024,-0.0082,-0.0082,-0.0082,0,0,0.0258,0.0247,0.0251,0.0232,0.021,0.0212,0.0172,0.0164,0.0161,0.0107,0.0089,0.0052,0.0014,-0.0006,-0.0015,-0.0023,-0.0041,-0.0038,-0.0034,-0.0013,-0.0028,-0.0022,-0.0017,-0.0081,-0.0081,-0.0081,0,0,0.0298,0.028,0.0295,0.0276,0.0254,0.0238,0.0242,0.0204,0.0179,0.0154,0.012,0.0096,0.0044,0.0025,0.0008,0.0018,-0.0021,0.0003,0.0054,0.004,0.0045,0.005,-0.0002,-0.0003,0.0008,0.0008,0.0008,0,0.0314,0.0331,0.0297,0.0299,0.0304,0.0259,0.0282,0.0243,0.0203,0.0201,0.016,0.0112,0.0063,0.0067,0.0058,0.0029,0.0004,0.0037,0.0047,0.0051,0.0055,0.0001,-0.0001,0.0011,0.0011,0.001,0.001,0,0.0359,0.0367,0.0375,0.0373,0.0373,0.0381,0.0344,0.0327,0.0295,0.0271,0.0252,0.0179,0.0163,0.0131,0.0088,0.0097,0.0062,0.0051,0.0038,0.0064,0.0004,0.0002,0.0014,0.0014,0.0013,0.0012,0,0,0.0392,0.0409,0.0404,0.0435,0.0414,0.0433,0.0423,0.0425,0.0453,0.0371,0.0408,0.0312,0.0281,0.0261,0.0204,0.0177,0.0142,0.0125,0.0123,0.0079,0.0086,0.0053,0.0047,0.0136,0.0136,0.0137,0.0022,0,0.0432,0.0492,0.0474,0.0536,0.0575,0.0536,0.0548,0.0541,0.0519,0.0534,0.045,0.046,0.0328,0.0335,0.0275,0.0201,0.0145,0.0173,0.0064,0.0061,0.0034,0.0047,0.0081,-0.0017,0.002,0.002,0.0019,0,0.0463,0.0513,0.0593,0.0658,0.0668,0.0693,0.0746,0.0745,0.0735,0.0722,0.0695,0.0644,0.0585,0.0483,0.0324,0.0349,0.0216,0.0134,0.0128,0.0088,0.0026,-0.0031,-0.0023,0.0015,0.0016,0.0016,0.0016,0,0.053,0.0588,0.0677,0.0689,0.0748,0.0775,0.08,0.081,0.0847,0.0862,0.0912,0.0813,0.0799,0.0626,0.0401,0.0377,0.0235,0.0185,0.0018,0.0011,0.0017,0.0012,0.0074,0.0074,0.0074,0.0075,0.0075,0,0.0578,0.064,0.072,0.0759,0.0885,0.0873,0.0978,0.0987,0.1027,0.1114,0.1019,0.1062,0.084,0.0719,0.0479,0.024,0.028,0.0035,-0.0005,0.003,0.0028,0.0048,0.0046,0.007,0.0071,0.0072,0.0073,0,0.0627,0.0668,0.0783,0.0874,0.092,0.1005,0.1105,0.1177,0.1195,0.131,0.1332,0.127,0.1114,0.0855,0.0601,0.0369,0.0137,0.0034,0.0069,0.0035,-0.0108,-0.0105,-0.0153,-0.0155,-0.0156,-0.0158,-0.0159,0,0.0666,0.0731,0.0883,0.097,0.1014,0.1133,0.1222,0.1269,0.1352,0.1427,0.1498,0.1411,0.1333,0.0935,0.057,0.0178,0.0121,-0.0052,-0.0094,-0.0089,-0.0124,-0.0119,-0.0115,-0.0092,-0.0093,-0.0093,-0.0094,0,0.0752,0.0797,0.0895,0.1077,0.1199,0.1344,0.1461,0.1555,0.1615,0.1686,0.1735,0.1682,0.1347,0.0982,0.0493,0.0229,0.0016,-0.0072,-0.0044,-0.0032,-0.0038,-0.0071,-0.0067,-0.0097,-0.0096,-0.0096,-0.0096,-0.0096,0.0821,0.0907,0.1032,0.1202,0.1348,0.1517,0.1619,0.1724,0.1849,0.1928,0.1886,0.179,0.1432,0.0799,0.0388,-0.0019,-0.0012,-0.0182,-0.0178,-0.0174,-0.0138,-0.0145,-0.0221,-0.0221,-0.0221,-0.0222,-0.0222,0,0.0921,0.1004,0.1152,0.1345,0.149,0.156,0.1757,0.182,0.1937,0.201,0.2,0.1634,0.1243,0.0827,0.0223,-0.0151,-0.0169,-0.0269,-0.0211,-0.0205,-0.02,-0.0164,-0.0255,-0.0256,-0.0257,-0.0258,0,0,0.098,0.1126,0.1193,0.1437,0.1552,0.1731,0.1835,0.1916,0.1982,0.2,0.1949,0.1861,0.1361,0.0915,0.043,0.0085,0.0023,0.0017,0.0083,0.0216,0.0224,-0.0112,-0.0044,0,0,0,0,0]}],[{"header":{"parameterUnit":"m.s-1","parameterCategory":2,"la1":30.2991,"la2":30.254,"lo1":-89.0895,"lo2":-89.0444,"dy":0.0017,"dx":0.0017,"nx":28,"ny":28,"refTime":"2024-11-27T09:00:00:Z","depth":"4","parameterNumber":2,"parameterNumberName":"U-component_of_CURRENTS"},"data":[0,0,0,0,0,0,0,0,0,0,0,0,0,0,0,0,0,0,0,0,0,0,0,0,0,0,0,0,0,0,0,0,0,0,0,0,0,0,0,0,0,0,0,0,0,0,0,0,0,0,0,0,0,0,0,0,0,0,0.1769,0.1771,0,0.1844,0.1844,0.1844,0.1877,0.1878,0.1879,0.188,0.1928,0.1929,0.1929,0,0,0,0,0,0,0,0,0,0,0,0,0,0.1667,0.1667,0.1769,0.1771,0.1774,0.1845,0.1844,0.1844,0.1877,0.1878,0.1879,0.1881,0.1928,0.1929,0.1929,0,0,0,0,0,0,0,0,0,0,0,0,0,0.171,0.1667,0.1769,0.1809,0.1814,0.1845,0.1844,0.1844,0.1876,0.1878,0.188,0.1881,0.1928,0.1929,0.1929,0.1896,0,0,0.193,0.193,0,0,0,0,0,0,0,0,0.1708,0.1712,0.1801,0.1806,0.1812,0.1865,0.1827,0.1865,0.1876,0.1838,0.188,0.1882,0.1913,0.1914,0.1905,0.1898,0.1901,0.193,0.193,0.193,0.193,0,0,0,0,0,0,0,0.1704,0.1709,0.1785,0.1803,0.181,0.1829,0.1835,0.1833,0.1853,0.1841,0.1847,0.1877,0.1914,0.1905,0.1907,0.1901,0.193,0.193,0.193,0.193,0.2089,0.2093,0,0,0,0,0,0,0.1721,0.1706,0.1783,0.1789,0.1779,0.183,0.1836,0.1835,0.1854,0.1863,0.1876,0.1879,0.1903,0.1906,0.1909,0.2009,0.193,0.193,0.1931,0.2085,0.209,0.2094,0,0,0,0,0,0,0.1717,0.1725,0.178,0.1762,0.1772,0.1831,0.1829,0.1836,0.1885,0.1883,0.1889,0.1927,0.1905,0.1908,0.1981,0.2007,0.1931,0.1931,0.2081,0.2087,0.2092,0.2123,0,0,0,0,0,0,0.1713,0.1722,0.173,0.1762,0.1775,0.1813,0.1829,0.1837,0.1904,0.191,0.1927,0.193,0.1906,0.1981,0.1981,0.2006,0.1931,0.2075,0.2083,0.209,0.2116,0.2129,0.2139,0,0,0,0,0,0.1709,0.1695,0.1728,0.174,0.178,0.1815,0.1821,0.186,0.1906,0.1913,0.1969,0.1933,0.203,0.1984,0.1984,0.2008,0.2072,0.2081,0.209,0.2111,0.2126,0.2139,0,0,0,0,0,0,0.1661,0.17,0.1736,0.174,0.1793,0.1827,0.1848,0.1894,0.194,0.1971,0.1973,0.1979,0.2046,0.2048,0.1999,0.2089,0.2049,0.2058,0.2065,0.2079,0.2091,0.2079,0.1931,0,0,0,0,0,0.1657,0.1654,0.1716,0.1727,0.1759,0.1822,0.1851,0.1891,0.1942,0.1965,0.1993,0.204,0.2071,0.2097,0.2112,0.2159,0.2177,0.2187,0.2198,0.2207,0.2206,0.2323,0.2344,0.2124,0.2124,0.2124,0,0,0.1657,0.1672,0.1681,0.1719,0.1764,0.1801,0.184,0.1902,0.1933,0.1963,0.2023,0.2071,0.2097,0.2145,0.2177,0.2157,0.2273,0.2219,0.2225,0.2219,0.2335,0.2356,0.2374,0.213,0.2129,0.2128,0,0,0.1641,0.1663,0.1666,0.1714,0.1796,0.1815,0.1853,0.1929,0.1961,0.203,0.2074,0.2158,0.2194,0.2224,0.2241,0.2336,0.2326,0.236,0.2403,0.2517,0.2535,0.2551,0.2556,0.2572,0.237,0.237,0.237,0,0.1654,0.1632,0.1679,0.1713,0.1762,0.1832,0.1878,0.1901,0.1996,0.2032,0.2056,0.2204,0.2217,0.2304,0.234,0.2351,0.24,0.2332,0.2528,0.2544,0.256,0.2562,0.258,0.2373,0.2372,0.2372,0.2372,0,0.164,0.1649,0.166,0.1707,0.178,0.1808,0.1893,0.1946,0.2006,0.204,0.2162,0.2231,0.2315,0.2352,0.2363,0.25,0.2489,0.2518,0.2476,0.2583,0.2579,0.2596,0.2376,0.2376,0.2375,0.2374,0,0,0.1601,0.1631,0.1643,0.1675,0.1776,0.1831,0.1897,0.1952,0.2015,0.2102,0.216,0.2281,0.2354,0.2386,0.2455,0.2572,0.2696,0.2607,0.2612,0.258,0.2904,0.2693,0.2691,0.2791,0.2796,0.28,0.2836,0,0.157,0.1565,0.1629,0.1688,0.1704,0.1826,0.1896,0.1993,0.2047,0.21,0.2192,0.2287,0.2351,0.2443,0.2554,0.2698,0.2756,0.2679,0.2832,0.2834,0.261,0.271,0.2814,0.2849,0.2853,0.2856,0.2858,0,0.1555,0.1524,0.1561,0.1663,0.1705,0.1771,0.1922,0.2021,0.2107,0.2173,0.2279,0.2323,0.2492,0.2518,0.2795,0.2767,0.2814,0.2903,0.2907,0.2712,0.2658,0.2738,0.289,0.2887,0.2885,0.2883,0.2881,0,0.1485,0.1513,0.1519,0.1558,0.1684,0.1759,0.1859,0.2024,0.2149,0.2236,0.2317,0.2457,0.2599,0.2731,0.288,0.2876,0.3129,0.3126,0.2948,0.293,0.3089,0.3072,0.3242,0.3241,0.3241,0.3241,0.3241,0,0.1418,0.1431,0.1471,0.1485,0.1552,0.1734,0.1891,0.1997,0.2182,0.2316,0.2381,0.2489,0.2692,0.2812,0.2885,0.2979,0.3136,0.2953,0.2949,0.3094,0.3079,0.3097,0.3079,0.3243,0.3242,0.3242,0.3242,0,0.1381,0.1386,0.1427,0.1508,0.1531,0.1642,0.1903,0.2004,0.2238,0.2399,0.2446,0.2599,0.2783,0.2886,0.3092,0.3021,0.3097,0.3049,0.3138,0.3138,0.2793,0.2778,0.2854,0.2848,0.2842,0.2837,0.2833,0,0.1312,0.1324,0.1442,0.147,0.1499,0.165,0.1741,0.1991,0.2126,0.2461,0.2493,0.2684,0.2747,0.2851,0.2973,0.3018,0.299,0.2951,0.2908,0.2777,0.2766,0.276,0.2752,0.2824,0.2823,0.2822,0.282,0,0.1198,0.132,0.1387,0.1423,0.1486,0.16,0.174,0.1827,0.2157,0.2344,0.2498,0.2533,0.2668,0.2747,0.2783,0.2817,0.2957,0.2892,0.2903,0.2863,0.2742,0.2735,0.2735,0.2801,0.2803,0.2805,0.2806,0,0.1159,0.1218,0.133,0.1395,0.1483,0.1527,0.1611,0.175,0.1934,0.2281,0.2311,0.2491,0.2662,0.264,0.269,0.2693,0.2656,0.2565,0.2593,0.2615,0.2519,0.2329,0.2264,0,0,0,0,0,0.1054,0.1137,0.1226,0.1316,0.1431,0.1457,0.161,0.1717,0.1966,0.2026,0.2198,0.2293,0.2366,0.2438,0.2394,0.2546,0.2639,0.2477,0.2541,0.2693,0.2715,0.2623,0,0,0,0,0,0,0.1008,0.1084,0.1203,0.1257,0.1302,0.1373,0.1466,0.1596,0.1673,0.1924,0.1977,0.2154,0.225,0.2392,0.2358,0.2379,0.2368,0.2597,0.259,0.268,0.2701,0.2719,0.2631,0,0,0,0,0]},{"header":{"parameterUnit":"m.s-1","parameterCategory":2,"la1":30.2991,"la2":30.254,"lo1":-89.0895,"lo2":-89.0444,"dy":0.0017,"dx":0.0017,"nx":28,"ny":28,"refTime":"2024-11-27T09:00:00:Z","depth":"4","parameterNumber":3,"parameterNumberName":"V-component_of_CURRENTS"},"data":[0,0,0,0,0,0,0,0,0,0,0,0,0,0,0,0,0,0,0,0,0,0,0,0,0,0,0,0,0,0,0,0,0,0,0,0,0,0,0,0,0,0,0,0,0,0,0,0,0,0,0,0,0,0,0,0,0,0,0.0135,0.0135,0,0.0065,0.0064,0.0063,0.0028,0.0028,0.0028,0.0029,-0.0002,-0.0003,-0.0005,0,0,0,0,0,0,0,0,0,0,0,0,0,0.0162,0.0162,0.0135,0.0135,0.0134,0.0065,0.0064,0.0063,0.0028,0.0028,0.0029,0.0029,-0.0002,-0.0003,-0.0005,0,0,0,0,0,0,0,0,0,0,0,0,0,0.0125,0.0162,0.0136,0.0111,0.0108,0.0065,0.0064,0.0062,0.0028,0.0028,0.0029,0.0029,-0.0002,-0.0003,-0.0005,-0.0022,0,0,-0.001,-0.001,0,0,0,0,0,0,0,0,0.0127,0.0123,0.0115,0.0112,0.0109,0.0058,0.0062,0.0037,0.0028,0.0055,0.0029,0.0029,0.0023,0.0019,0.0001,-0.0024,-0.0025,-0.001,-0.0011,-0.0011,-0.0012,0,0,0,0,0,0,0,0.013,0.0126,0.0105,0.0114,0.0111,0.0076,0.0072,0.0056,0.0037,0.0053,0.0051,0.0047,0.0021,0.0002,-0.0,-0.0025,-0.001,-0.0011,-0.0012,-0.0013,-0.0068,-0.0068,0,0,0,0,0,0,0.0147,0.0129,0.0107,0.0103,0.0122,0.0076,0.0071,0.0072,0.0036,0.0031,0.0047,0.0046,0.0005,0.0002,-0.0001,0.0007,-0.0011,-0.0013,-0.0014,-0.0067,-0.0068,-0.0068,0,0,0,0,0,0,0.0148,0.0146,0.011,0.0116,0.0109,0.0076,0.0077,0.007,0.0057,0.0031,0.0027,0.0042,0.0005,0.0001,-0.0011,0.0004,-0.0014,-0.0015,-0.0067,-0.0068,-0.0068,0.0003,0,0,0,0,0,0,0.015,0.0147,0.0153,0.0118,0.011,0.0108,0.0077,0.0069,0.0055,0.0053,0.0025,0.0022,0.0005,-0.0008,-0.0012,0.0002,-0.0016,-0.0066,-0.0067,-0.0068,0.0001,0.0005,0.0008,0,0,0,0,0,0.0151,0.0169,0.0153,0.0151,0.0119,0.0109,0.0102,0.0077,0.0055,0.0062,0.0031,0.0023,-0.0018,-0.001,-0.0015,-0.0,-0.0066,-0.0067,-0.0068,-0.0,0.0004,0.0008,0,0,0,0,0,0,0.0183,0.0166,0.0148,0.0159,0.0143,0.0105,0.0106,0.008,0.0057,0.0051,0.0021,0.0016,0.0007,-0.0013,-0.0004,-0.0024,-0.0045,-0.0047,0.0008,0.0012,0.0015,0.0041,-0.0018,0,0,0,0,0,0.0192,0.0207,0.0175,0.0188,0.0177,0.0137,0.0127,0.0109,0.0083,0.0072,0.0054,0.0023,-0.0005,-0.0007,-0.0032,-0.0036,-0.007,-0.0034,-0.0031,-0.0028,-0.0013,-0.0064,-0.0063,-0.0072,-0.0072,-0.0072,0,0,0.0209,0.0204,0.021,0.0197,0.0175,0.018,0.0132,0.0125,0.0132,0.0074,0.0079,0.0035,-0.0007,-0.0015,-0.002,-0.0024,-0.0046,-0.0029,-0.0026,-0.0013,-0.0065,-0.0063,-0.0062,-0.0073,-0.0073,-0.0073,0,0,0.0258,0.0242,0.0266,0.025,0.023,0.0215,0.0216,0.0181,0.0166,0.0157,0.0109,0.0072,0.0048,0.0016,-0.0005,-0.0002,-0.0034,-0.0009,0.0041,-0.0007,-0.0006,-0.0006,-0.0054,-0.0059,0.0001,0.0001,0.0001,0,0.0272,0.0301,0.0272,0.0282,0.0281,0.0237,0.0256,0.0236,0.0206,0.0198,0.0174,0.0098,0.0061,0.0036,0.0035,0.0009,-0.0022,0.0036,-0.0001,-0.0001,-0.0001,-0.0051,-0.0057,0.0004,0.0004,0.0004,0.0003,0,0.0328,0.0347,0.0359,0.0367,0.0363,0.0373,0.0343,0.0341,0.0316,0.0289,0.0252,0.018,0.0137,0.0112,0.0078,0.0054,0.0031,0.0005,-0.0002,0.0004,-0.0049,-0.0056,0.0009,0.0008,0.0007,0.0006,0,0,0.0351,0.0395,0.0392,0.0421,0.0405,0.0416,0.0427,0.0427,0.0427,0.0382,0.0363,0.03,0.0244,0.0214,0.0151,0.0109,0.0064,0.0068,0.0064,0.0036,-0.004,-0.0046,-0.0055,0.0038,0.0038,0.0037,-0.0077,0,0.0398,0.0467,0.0464,0.0525,0.0554,0.0522,0.054,0.0527,0.0495,0.0466,0.0378,0.0341,0.0288,0.0255,0.0202,0.0094,0.005,0.0097,-0.0055,-0.0059,-0.0053,-0.0062,0.0035,-0.0082,-0.0084,-0.0085,-0.0086,0,0.0427,0.0483,0.0564,0.0618,0.0622,0.0657,0.067,0.0669,0.0613,0.058,0.0519,0.0439,0.0364,0.0304,0.0157,0.0193,0.0091,0.0006,-0.0001,-0.0031,-0.0078,-0.0092,-0.01,-0.0099,-0.0098,-0.0097,-0.0096,0,0.0458,0.0536,0.0625,0.0636,0.0692,0.0726,0.0745,0.0714,0.0718,0.0649,0.0633,0.052,0.0461,0.0328,0.0156,0.016,-0.0025,-0.0047,-0.015,-0.0152,-0.0142,-0.0142,-0.0152,-0.0152,-0.0152,-0.0151,-0.0151,0,0.049,0.0552,0.0664,0.0698,0.0798,0.0793,0.085,0.0838,0.0808,0.0811,0.0699,0.0659,0.0468,0.0331,0.0172,-0.0008,-0.0011,-0.0138,-0.0179,-0.0113,-0.0107,-0.0148,-0.0146,-0.0156,-0.0155,-0.0154,-0.0153,0,0.0501,0.0568,0.0669,0.0771,0.0818,0.0876,0.0945,0.0961,0.094,0.0928,0.0917,0.0776,0.0608,0.0397,0.0158,0.0031,-0.0156,-0.0224,-0.0138,-0.0174,-0.0255,-0.0248,-0.0334,-0.0335,-0.0336,-0.0337,-0.0338,0,0.0521,0.0584,0.0725,0.0793,0.0855,0.0953,0.1004,0.1026,0.1039,0.0996,0.0983,0.0837,0.0716,0.0381,0.0154,-0.0147,-0.0191,-0.0287,-0.0265,-0.0241,-0.0273,-0.0264,-0.0257,-0.0339,-0.0339,-0.034,-0.034,0,0.056,0.061,0.0698,0.0827,0.0924,0.1025,0.1105,0.1139,0.1139,0.1134,0.1046,0.0866,0.0661,0.039,0.0152,-0.0067,-0.0223,-0.0298,-0.0297,-0.0277,-0.0248,-0.0277,-0.0268,-0.0343,-0.0343,-0.0342,-0.0342,0,0.059,0.0649,0.0748,0.0866,0.0978,0.1065,0.111,0.1145,0.1171,0.1136,0.1101,0.0881,0.0756,0.0429,0.0203,-0.0007,-0.0054,-0.0119,-0.0128,-0.0127,-0.0037,0.0032,-0.0007,0,0,0,0,0,0.0616,0.0681,0.0776,0.0894,0.0988,0.1054,0.116,0.1187,0.1215,0.1168,0.1145,0.0953,0.0627,0.0472,0.0264,0.0174,-0.0103,-0.0079,-0.0184,-0.0361,-0.0357,-0.0287,0,0,0,0,0,0,0.0627,0.0728,0.0774,0.0894,0.0964,0.1068,0.114,0.1158,0.1135,0.1132,0.0962,0.0892,0.0571,0.0743,0.0254,0.0188,0.0092,-0.0228,-0.0233,-0.0363,-0.036,-0.0357,-0.0284,0,0,0,0,0]}]]